Voltar ao catálogo

PSLV DEB

AtivoSSO
NORAD 27124·DEBRIS·🇮🇳 India

Lançado Oct 22, 2001 de Satish Dhawan Space Centre

Loading…

Próximas Passagens (próximas 24 horas)

TLE

AtualizadoSource: Space-Track

Época: Sep 14, 2026, 15:39 UTC

1 27124U 01049BU  26257.65241332  .00002140  00000-0  20666-3 0  9998
2 27124  98.0431 326.4127 0029494 110.3185  49.7322 14.93654310333085

Acompanhe PSLV DEB em tempo real com AllMySat

Download on the App Store